{"data":{"norad_id":59673,"epoch":"2026-09-21T18:43:47.335008Z","epoch_age_seconds":60580,"freshness":"FRESH","line1":"1 59673U 24084V   26264.78040897  .00000827  00000+0  39565-4 0  9999","line2":"2 59673  43.0014  14.2870 0000981 252.5474 107.5270 15.27576504134364","mean_motion":15.27576504,"eccentricity":9.81e-5,"inclination_deg":43.0014,"raan_deg":14.287,"arg_perigee_deg":252.5474,"mean_anomaly_deg":107.527,"bstar":3.9565e-5,"rev_number":13436,"period_min":94.266964451818,"perigee_km":482.38648095834,"apogee_km":483.73264772426,"semimajor_km":6861.1965643413,"source":"CELESTRAK","updated_at":"2026-09-22T09:00:49.029869Z"}}